Location: Caser�o els Hostalets
(42.2925°N, 2.9442°E)
Time: 08:54:51
(UTC+00:00)

Daily predictions for brighter satellites

Satellite Brightness Start Highest point End
(mag) Time Altitude Azimuth Time Altitude Azimuth Time Altitude Azimuth
EXPRESS MD2 3.3 19:46:00 10° SSW 19:48:21 34° SE 19:52:02 10° ENE
STARLINK-1125 4.3 19:45:44 10° NW 19:49:45 47° NNE 19:53:45 10° ESE
Tsikada Rocket 4.1 19:46:00 10° S 19:52:11 83° W 19:58:22 10° N
Cosmos 1743 3.9 19:48:44 10° NNW 19:52:23 45° W 19:56:00 10° SSW
STARLINK-1089 4.5 19:48:30 10° WNW 19:52:26 43° SW 19:56:21 10° SSE
Cosmos 407 Rocket 4.3 19:47:17 10° NNW 19:52:30 55° WSW 19:57:42 10° S
FREGAT/IRIS 4.1 19:50:42 10° SSW 19:53:07 31° W 19:55:33 10° NNW
Cosmos 1833 Rocket 2.8 19:48:13 10° NNW 19:53:50 68° ENE 19:59:25 10° SSE
STARLINK-1109 4.2 19:50:42 10° NW 19:54:46 50° NNE 19:58:48 10° ESE
STARLINK-1246 4.1 19:52:10 10° WSW 19:56:17 65° NNW 20:00:25 10° NE
Cosmos 1420 Rocket 4.0 19:53:30 10° SSW 19:58:41 78° ESE 20:03:53 10° NNE
Cosmos 1452 Rocket 3.7 19:53:53 10° S 19:58:59 53° ESE 20:04:08 10° NNE
Cosmos 332 Rocket 4.3 19:54:48 10° S 19:59:21 40° ESE 20:03:55 10° NE
BREEZE-M DEB 3.4 19:57:57 10° S 19:59:31 17° SE 20:01:26 10° E
STARLINK-1091 4.1 19:55:39 10° NW 19:59:43 54° NNE 20:03:47 10° ESE
Cosmos 2082 Rocket 2.7 19:54:54 10° NNW 20:00:26 48° ENE 20:05:55 10° SE
STARLINK-1224 4.3 19:57:10 10° WSW 20:01:16 60° NNW 20:05:22 10° NE
DMSP B5D2-2 4.1 19:56:59 10° NNE 20:02:18 88° ESE 20:07:34 10° SSW
STARLINK-1072 4.0 20:00:38 10° NW 20:04:45 59° NNE 20:08:50 10° ESE
Cosmos 1461 3.2 20:01:41 10° S 20:05:32 42° ESE 20:09:37 10° NE
STARLINK-1225 4.4 20:02:12 10° WSW 20:06:16 55° NNW 20:10:21 10° NE
Cosmos 1140 Rocket 4.2 20:01:43 10° NNW 20:06:47 54° WSW 20:11:52 10° S
Cosmos 1782 Rocket 4.2 20:02:27 10° NNW 20:06:53 61° W 20:11:16 10° S
SJ-6B 4.0 20:03:42 10° SSW 20:07:12 39° W 20:10:44 10° NNW
Iridium 51 4.2 20:03:24 10° S 20:07:17 90° NW 20:10:54 10° N
MOS 1 Rocket 3.7 20:03:37 10° N 20:07:55 60° WNW 20:12:06 10° SSW
Okean 3 3.5 20:03:46 10° S 20:08:02 69° E 20:12:20 10° NNE
Cosmos 1544 3.5 20:04:56 10° NNW 20:08:31 61° W 20:12:03 10° S
STARLINK-1096 3.9 20:05:36 10° NW 20:09:44 63° NE 20:13:39 11° ESE
ASTEX 1 4.4 20:05:07 10° SSW 20:09:50 49° W 20:14:37 10° NNW
NOSS 2-2 (C) 4.3 20:09:12 10° SSE 20:11:57 21° ESE 20:14:48 10° ENE
ASTRO E2 4.4 20:11:24 10° SSW 20:13:51 16° S 20:15:41 12° SE
STARLINK-1079 3.8 20:10:34 10° NW 20:14:43 69° NE 20:18:26 12° ESE
Cosmos 2221 Rocket 3.6 20:11:24 10° S 20:15:54 78° E 20:20:27 10° N
SL-4 R/B 1.3 20:15:08 10° NW 20:18:09 66° WSW 20:20:30 13° SSE
NOSS 8 (F) 4.1 20:15:50 10° SSW 20:19:15 83° SE 20:22:17 10° NE
Meteor 1-13 Rocket 4.3 20:13:58 10° S 20:19:28 63° E 20:25:08 10° NNE
STARLINK-1116 3.7 20:15:33 10° NW 20:19:42 75° NE 20:23:13 14° ESE
ERS-1 Rocket 4.4 20:19:40 11° ESE 20:23:20 24° ENE 20:27:20 10° NNE
Cosmos 2142 Rocket 4.5 20:19:49 10° N 20:26:00 82° E 20:32:12 10° S
USA 245 3.6 20:27:56 18° SE 20:29:35 30° ENE 20:31:57 10° N
STARLINK-1094 3.6 20:25:30 10° NW 20:29:40 88° NE 20:32:47 17° SE
Sich 1 Rocket 4.4 20:26:05 10° NNW 20:30:32 52° W 20:34:58 10° S
Cosmos 2278 Rocket 3.4 20:26:26 10° SW 20:31:52 46° WNW 20:37:20 10° NNE
TSX-5 4.4 20:26:11 10° SSW 20:32:06 71° ESE 20:36:39 10° NNE
Resurs 01 Rocket 1.8 20:28:32 10° S 20:32:59 72° WSW 20:37:27 10° NNW
Nadezhda 4 Rocket 4.5 20:28:28 12° SSE 20:33:42 40° E 20:39:21 10° NNE
GPS 2-04 Rocket1 3.5 20:31:22 10° WSW 20:34:23 27° S 20:35:57 20° SE
STARLINK-1117 3.6 20:30:29 10° NW 20:34:38 86° SW 20:37:34 19° SE
Okean 1 Rocket 4.0 20:31:15 10° N 20:35:17 32° ENE 20:37:54 18° SE
Cosmos 1741 Rocket 4.1 20:30:35 10° NNW 20:35:47 66° ENE 20:39:49 17° SSE
Okean 2 Rocket 3.2 20:31:39 10° NNW 20:36:05 75° W 20:40:26 10° S
MetOp-B 4.1 20:32:02 13° SSE 20:36:50 74° ENE 20:42:11 10° N
Meteor 1-12 Rocket 4.4 20:33:46 10° NNW 20:39:26 80° W 20:45:09 10° S
STARLINK-1078 3.6 20:35:28 10° NW 20:39:36 79° SW 20:42:21 21° SE
SL-8 R/B 4.5 20:36:47 10° WNW 20:41:28 49° NNE 20:46:08 10° E
Cosmos 371 Rocket 4.0 20:39:03 10° SW 20:43:48 56° WNW 20:48:37 10° NNE
Cosmos 2279 Rocket 4.0 20:37:57 10° N 20:44:12 87° W 20:50:13 11° S
STARLINK-1108 3.7 20:40:27 10° WNW 20:44:35 72° SW 20:47:08 22° SE
Cosmos 1850 Rocket 4.0 20:40:01 10° NNW 20:45:23 84° ENE 20:49:25 18° SSE
SL-4 R/B 3.3 20:41:34 10° S 20:45:24 25° SE 20:49:21 10° ENE
ATLAS 3B CENTAUR R/B 4.1 20:32:22 10° WSW 20:45:48 34° S 20:50:57 18° SE
Cosmos 1110 Rocket 4.1 20:40:54 10° S 20:45:55 54° ESE 20:50:58 10° NNE
Terra 3.3 20:44:22 15° ESE 20:47:00 23° ENE 20:50:44 10° NNE
Spot 2 Rocket 3.5 20:44:03 17° SSE 20:47:59 76° ENE 20:53:02 10° N
SPOT 1/Viking Rocket 3.8 20:45:17 19° SE 20:48:53 56° ENE 20:53:55 10° N
STARLINK-1071 3.7 20:45:27 10° WNW 20:49:33 66° SW 20:51:55 24° SE
Abrixas rocket 2.8 20:47:14 10° NW 20:50:06 45° NNE 20:51:50 20° E
CARTOSAT-1 4.5 20:47:49 20° ESE 20:50:07 34° ENE 20:54:01 10° N
NOSS 8 (H) 4.3 20:47:07 10° SW 20:50:24 76° NW 20:53:26 10° NNE
Cosmos 2151 Rocket 3.8 20:46:18 10° NNW 20:50:50 76° W 20:54:34 15° S
STARLINK-1110 3.8 20:49:14 10° WNW 20:53:19 61° SW 20:55:32 25° SSE
STARLINK-1124 3.9 20:55:26 10° WNW 20:59:29 54° SW 21:01:29 27° SSE
Aureole 2 4.3 20:56:44 10° N 20:59:46 53° ENE 21:00:36 37° ESE
Cosmos 1331 Rocket 3.9 20:57:35 10° S 21:02:41 69° ESE 21:07:51 10° NNE
Aureole 2 Rocket 2.8 21:00:33 10° SSW 21:03:38 54° WNW 21:06:36 10° N
STARLINK-1122 4.1 21:00:26 10° WNW 21:04:26 49° SW 21:06:15 28° SSE
deb Kosmos-1763 3.9 21:01:55 10° NNW 21:05:32 78° ENE 21:06:57 34° SSE
STARLINK-1113 4.4 21:02:42 10° NW 21:06:42 46° NNE 21:09:16 20° E
Cosmos 1437 Rocket 3.6 21:04:52 10° SSW 21:08:31 47° WNW 21:12:13 10° N
Cosmos 1733 4.4 21:05:21 10° NNE 21:08:39 27° ENE 21:09:32 24° E
STARLINK-1126 4.2 21:05:29 10° WNW 21:09:27 45° SW 21:11:06 29° S
Cosmos 1378 3.2 21:09:41 34° SSE 21:11:02 56° E 21:14:41 10° NNE
STARLINK-1119 4.3 21:07:41 10° NW 21:11:44 49° NNE 21:14:04 23° E
Cosmos 1302 Rocket 4.4 21:10:13 25° SSE 21:12:50 44° ESE 21:17:52 10° NNE
STARLINK-1082 4.4 21:10:27 10° WNW 21:14:20 40° SW 21:15:48 29° S
Cosmos 1242 Rocket 4.4 21:15:26 17° E 21:15:26 17° E 21:17:34 10° NE
Cosmos 304 Rocket 4.3 21:10:30 10° SSW 21:15:12 59° WNW 21:19:57 10° NNE
ISS -2.4 21:13:35 10° WNW 21:16:28 26° SW 21:17:02 25° SSW
STARLINK-1114 4.2 21:12:38 10° NW 21:16:42 53° NNE 21:18:49 25° E
Meteor 1-15 Rocket 4.4 21:12:03 10° NNW 21:17:59 79° W 21:21:57 22° S
Cosmos 1092 Rocket 4.1 21:15:30 24° SSE 21:19:08 58° E 21:25:09 10° NNE
STARLINK-1100 4.5 21:15:27 10° WNW 21:19:17 37° SW 21:20:34 29° S
Lacrosse 5 3.1 21:15:15 10° WNW 21:19:41 31° SW 21:22:07 21° S
NOSS 2-2 (D) 3.4 21:16:39 10° SW 21:20:11 67° NW 21:24:02 10° NNE
STARLINK-1130 (DARKSAT) 4.0 21:17:36 10° NW 21:21:42 57° NNE 21:23:37 29° E
CENTAUR R/B 4.0 21:16:51 10° NNW 21:24:23 43° NE 21:31:08 15° ESE
Cosmos 1378 Rocket 4.2 21:22:49 14° SSW 21:26:29 54° W 21:30:48 10° N
STARLINK-1084 3.9 21:22:34 10° NW 21:26:42 61° NNE 21:28:24 32° ESE
SL-27 R/B 3.7 21:25:49 10° N 21:28:57 28° ENE 21:29:28 26° E
STARLINK-1098 3.8 21:27:32 10° NW 21:31:41 67° NE 21:33:11 37° ESE
Cosmos 1766 3.2 21:27:46 10° N 21:31:46 71° E 21:32:47 47° SSE
Cosmos 1943 Rocket 2.0 21:31:46 18° SSW 21:35:58 80° ESE 21:41:35 10° NNE
STARLINK-1123 3.7 21:32:30 10° NW 21:36:39 72° NE 21:37:57 42° ESE
NOSS 3-4 (A) 4.0 21:36:32 31° SE 21:37:28 33° ESE 21:42:53 10° NE
NOSS 3-4 (C) 4.0 21:36:40 31° SE 21:37:34 33° ESE 21:42:59 10° NE
Cosmos 1900 4.4 21:34:04 10° NNW 21:39:08 79° ENE 21:41:01 39° SE
STARLINK-1097 3.6 21:37:30 10° NW 21:41:40 79° NE 21:42:45 48° ESE
Cosmos 2082 Rocket 3.9 21:39:37 10° NW 21:44:11 25° WSW 21:47:54 13° SSW
SeaSat 1 3.7 21:40:58 10° NE 21:44:35 25° E 21:44:35 25° E
Cosmos 1975 Rocket 3.0 21:44:36 44° S 21:45:59 81° E 21:50:24 10° N
STARLINK-1099 3.5 21:42:28 10° NW 21:46:37 85° NE 21:47:31 54° ESE
Cosmos 292 Rocket 3.9 21:48:20 45° SSE 21:49:24 56° ESE 21:54:10 10° NNE
BREEZE-M DEB (TANK) 4.3 21:31:30 10° WSW 21:49:57 69° NNW 21:54:18 10° ENE
STARLINK-1104 3.5 21:47:26 10° NW 21:51:36 88° SSW 21:52:18 61° SE
Cosmos 2369 Rocket 2.1 21:49:04 28° SSW 21:52:09 77° ESE 21:57:49 10° NNE
SPOT 5 3.4 21:53:31 32° SSW 21:55:49 58° W 22:01:06 10° NNW
STARLINK-1144 3.4 21:52:25 10° NW 21:56:35 81° SW 21:57:05 67° SSE
ATLAS CENTAUR R/B 2.9 21:59:35 23° E 21:59:35 23° E 22:01:46 10° NE
STARLINK-1103 3.4 21:57:24 10° NW 22:01:33 74° SW 22:01:51 69° S
ERS-1 Rocket 3.8 21:59:40 27° SSW 22:01:52 42° W 22:06:39 10° NNW
Cosmos 1025 Rocket 3.7 22:02:58 39° E 22:02:58 39° E 22:06:54 10° NNE
Okean 2 3.9 22:02:00 36° SW 22:03:22 55° W 22:07:28 10° N
Cosmos 2026 Rocket 4.0 22:00:23 32° S 22:03:33 87° W 22:09:57 10° N
ATLAS 2AS CENTAUR R/B 3.0 22:00:30 25° S 22:05:19 63° ESE 22:13:10 10° NE
Cosmos 1656 Rocket 3.9 22:04:50 44° SE 22:05:50 49° ESE 22:11:12 10° NE
Thor Agena Rocket 3.9 22:01:16 10° NNE 22:06:23 48° E 22:07:12 44° SE
STARLINK-1101 3.5 22:02:23 10° WNW 22:06:31 68° SW 22:06:38 67° SSW
BREEZE M DEB (TANK) 4.4 22:03:18 10° W 22:06:39 26° NNW 22:08:32 11° NE
Meteor 1-22 Rocket 4.5 22:01:01 10° NNW 22:06:49 65° W 22:09:05 36° SSW
BREEZE-M DEB (TANK) 4.5 21:55:25 10° WNW 22:09:23 65° NNE 22:11:56 26° E
Cosmos 1553 Rocket 4.1 22:03:29 10° N 22:09:42 61° E 22:11:43 41° SE
APEX 4.3 22:06:47 29° SSW 22:10:16 82° ESE 22:15:50 10° NNE
Cosmos 1953 3.8 22:07:23 10° NNE 22:10:41 25° ENE 22:10:41 25° ENE
NOSS 3-2 (A) 4.1 22:03:36 10° NW 22:11:17 80° WSW 22:15:11 36° SSE
STARLINK-1102 3.7 22:07:23 10° WNW 22:11:26 62° SW 22:11:26 62° SW
Cosmos 1470 2.9 22:08:06 10° N 22:11:51 60° ENE 22:11:51 60° ENE
Cosmos 968 Rocket 3.5 22:11:17 10° NNW 22:16:26 67° ENE 22:17:31 51° SE
STARLINK-1111 3.9 22:12:22 10° WNW 22:16:12 55° WSW 22:16:12 55° WSW
Cosmos 1655 Rocket 4.3 22:15:01 41° SE 22:16:40 52° E 22:22:43 10° NNE
Cosmos 1455 Rocket 3.1 22:14:32 10° NNW 22:18:51 66° W 22:19:25 58° SW
ATLAS 5 CENTAUR R/B 2.4 22:13:39 10° SSW 22:21:46 42° ENE 22:23:29 10° NE
STARLINK-1073 4.1 22:17:23 10° WNW 22:20:59 48° WSW 22:20:59 48° WSW
USA 238 DEB 3.9 22:15:52 10° NW 22:23:04 68° WSW 22:25:51 41° S
USA 238 3.9 22:15:58 10° NW 22:23:11 69° WSW 22:25:58 41° S
SL-8 R/B 3.7 22:19:24 10° WNW 22:24:08 60° SSW 22:24:13 59° SSW
Terra 2.7 22:23:15 33° SW 22:24:30 39° W 22:28:58 10° NNW
SL-4 R/B 2.6 22:20:03 10° WSW 22:24:49 71° NNW 22:29:40 10° NE
Cosmos 1842 4.3 22:24:07 34° WSW 22:24:57 38° WNW 22:28:37 10° N
Cosmos 1758 3.3 22:21:23 10° N 22:25:25 77° ENE 22:25:25 77° ENE
STARLINK-1121 4.3 22:22:23 10° WNW 22:25:46 42° WSW 22:25:46 42° WSW
STARLINK-1234 4.5 22:27:21 10° NW 22:30:16 33° NNE 22:30:16 33° NNE
In-Cosmos 22 4.5 22:30:05 43° ESE 22:30:32 44° E 22:35:32 10° NNE
Cosmos 2266 Rocket 4.2 22:33:43 45° SE 22:34:57 52° E 22:40:48 10° NNE
STARLINK-1209 4.4 22:33:28 10° NW 22:36:13 37° N 22:36:13 37° N
Cosmos 1503 Rocket 4.0 22:31:16 10° NNW 22:36:37 73° ENE 22:37:35 58° SE
Meteor 2-8 Rocket 4.4 22:36:23 10° N 22:42:33 82° E 22:44:07 53° SSE
Cosmos 1536 Rocket 3.4 22:45:44 78° W 22:45:48 79° W 22:50:10 10° N
Cosmos 1674 4.3 22:48:20 26° ENE 22:48:20 26° ENE 22:50:38 10° NNE
Cosmos 1271 Rocket 3.5 22:49:29 44° W 22:49:32 44° WNW 22:53:19 10° N
Cosmos 1242 Rocket 4.2 22:49:25 27° W 22:49:43 28° WNW 22:52:57 10° NNW
Spot 4 3.7 22:53:29 74° SSW 22:53:53 82° WSW 22:58:46 10° NNW
COSMOS 2455 2.7 22:52:50 55° SSW 22:54:14 81° ESE 23:00:17 10° NNE
Cosmos 1354 Rocket 3.9 22:50:36 10° NNW 22:55:56 87° WSW 22:56:35 70° S
USA 215 4.0 22:52:57 13° E 22:58:31 50° NNE 23:04:47 10° NW
Cosmos 1707 3.6 22:59:44 43° WNW 22:59:44 43° WNW 23:03:20 10° N
Cosmos 1833 4.1 22:54:47 10° NNW 23:00:24 70° WSW 23:01:10 61° SSW
Helios 1A 4.2 23:01:35 31° ENE 23:01:41 31° ENE 23:05:23 10° N
Cosmos 2297 Rocket 4.5 22:59:03 10° N 23:02:43 17° NE 23:06:22 10° E
ALOS 2 2.7 23:07:47 68° ENE 23:07:47 68° ENE 23:12:03 10° N
Cosmos 1726 2.9 23:04:27 10° NNW 23:07:20 50° NNW 23:07:20 50° NNW
COSMOS 2487 3.7 23:08:15 10° NNW 23:10:32 39° NNW 23:10:32 39° NNW
Meteor 2-5 Rocket 4.0 23:14:12 48° ESE 23:14:40 49° E 23:20:03 10° NNE
CENTAUR R/B 3.3 23:07:28 10° NW 23:15:33 60° WSW 23:18:18 44° S
Meteor 1-16 Rocket 4.0 23:11:45 10° NNW 23:17:14 78° W 23:17:49 69° SSW
Cosmos 1867 3.5 23:13:04 10° NW 23:18:30 67° WSW 23:18:45 66° SW
ATLAS 3B R/B 2.7 23:11:56 10° NNW 23:18:47 80° NE 23:21:10 45° SE
NOSS 3-2 (C) 4.5 23:13:28 10° NW 23:20:53 49° WSW 23:23:02 41° SSW
Cosmos 1606 Rocket 3.8 23:17:38 10° N 23:21:36 63° NE 23:21:36 63° NE
Cosmos 2098 Rocket 4.3 23:20:08 52° S 23:22:09 83° E 23:29:40 10° N
SeaSat 1 3.3 23:17:57 10° NNE 23:22:39 45° WNW 23:24:20 33° WSW
NOSS 3-4 (A) 4.3 23:23:53 18° WSW 23:28:06 45° NW 23:34:12 10° NNE
NOSS 3-4 (C) 4.3 23:24:01 18° WSW 23:28:12 46° NW 23:34:18 10° NNE
ATLAS CENTAUR R/B 4.3 23:27:27 10° NNE 23:28:35 12° NE 23:29:58 10° ENE
RESURS DK-1 2.9 23:29:48 57° NNE 23:29:48 57° NNE 23:33:08 10° NNE
Cosmos 2084 3.7 23:33:36 66° NE 23:33:36 66° NE 23:37:29 10° NE
BREEZE-M R/B 3.7 23:25:33 10° SW 23:34:44 75° SSE 23:38:58 10° ENE
Cosmos 1626 3.6 23:36:00 32° NE 23:36:00 32° NE 23:38:25 10° NNE
Cosmos 2315 Rocket 3.9 23:29:35 10° N 23:35:48 80° W 23:36:59 60° SSW
ATLAS CENTAUR R/B 3.0 23:35:42 27° W 23:36:56 31° NW 23:40:40 10° NNE
Okean 1-7 Rocket 4.0 23:37:39 53° ENE 23:37:39 53° ENE 23:41:41 10° NNE
Cosmos 1340 Rocket 4.2 23:35:05 10° NNW 23:38:06 32° WNW 23:38:06 32° WNW
Cosmos 2227 Rocket 3.9 23:35:14 10° N 23:40:01 27° NE 23:43:29 15° ESE
Nadezhda 2 Rocket 4.3 23:39:44 61° SSE 23:40:48 78° E 23:46:56 10° N
Cosmos 1908 4.2 23:39:41 10° NNW 23:42:29 43° NW 23:42:29 43° NW
STARLINK-1198 4.5 23:41:36 10° NW 23:45:37 46° NNE 23:46:07 44° NE
Cosmos 1953 4.2 23:43:53 10° NW 23:46:22 21° WNW 23:46:22 21° WNW
STARLINK-1199 4.3 23:46:35 10° NW 23:50:38 50° NNE 23:50:56 49° NE
STARLINK-1210 4.2 23:51:33 10° NW 23:55:37 54° NNE 23:55:41 54° NE
